"Pseudo-MPEC" for P22ppYF

Created 2026 Aug 14 22:35:26 UT using Find_Orb

Click here for an explanation of pseudo-MPECs

 
 Astrometry: 
     P22ppYF*0C2026 08 14.43309500 04 13.720+16 47 36.29   ~8ECZ 19.95wXNEOCPF52
     P22ppYF 0C2026 08 14.45574800 04 09.305+16 58 46.67   ~8EEK       VNEOCPF52
     P22ppYF 0C2026 08 14.46746600 04 06.991+17 04 33.24   ~8ECZ 20.14wXNEOCPF52
     P22ppYF 0C2026 08 14.61672900 03 36.160+18 18 16.01   ~8EKZ 20.14GVNEOCPF51
     P22ppYF 0C2026 08 14.61737500 03 36.047+18 18 35.83   ~8EKZ 19.41GVNEOCPF51

Station data:
(F51) Pan-STARRS 1, Haleakala  (N20.707234 W156.255910)  US/Hawaii.
   Observers J. Herman, T. Lowe, P. Minguez, A. Schultz, I. Smith. Measurers
   K. Chambers, T. de Boer, J. Fairlamb, H. Gao, M. Huber, C.-C. Lin, E.
   Magnier, Y. Ramanjooloo, R. Wainscoat, R. Weryk. 1.8-m Ritchey-Chrétien +
   CCD.
(F52) Pan-STARRS 2, Haleakala  (N20.707382 W156.255910)  US/Hawaii.
   Observers J. Herman, T. Lowe, P. Minguez, A. Schultz, I. Smith. Measurers
   K. Chambers, T. de Boer, J. Fairlamb, H. Gao, M. Huber, C.-C. Lin, E.
   Magnier, Y. Ramanjooloo, R. Wainscoat, R. Weryk. 1.8-m Ritchey-Chrétien +
   CCD.

Orbital elements:  P22ppYF
   Perihelion 2026 Oct 7.940496 +/- 6.93 TT = 22:34:18.8 (JD 2461321.440496)
Epoch 2026 Aug 15.0 TT = JDT 2461267.5   Earth MOID: 0.0447      AutoNEOCP
M 325.867514609 +/- 9               (J2000 ecliptic)
n   0.632780334 +/- 0.0906          Peri.   66.189249 +/- 8
a   1.343695099 +/- 0.128           Node   321.783066 +/- 0.27
e   0.32260996 +/- 0.0525           Incl.   24.959391 +/- 2.6
P   1.558/568.907d         H 24.16  G  0.15   U 11.1
q 0.910205670 +/- 0.0236    Q 1.777184528 +/- 0.239
From 5 observations 2026 Aug. 14 (4.4 hr); mean residual 0".18
Residuals in arcseconds: 
260814 F52  .03+  .05-    260814 F52  .07+  .10-    260814 F51  .14+  .33+    
260814 F52  .10-  .16+    260814 F51  .14-  .33-    

Ephemerides (geocentric):
Date (UTC) HH   RA             Dec           delta  r     elong  mag " sig PA
---- --------  ------------   ------------  ------ ------ -----  --- --------
2026 08 14 23  00 02 46.927   +21 09 29.43  .06105 1.0529 129.6 20.0 35.3  70
2026 08 15 00  00 02 40.150   +21 30 33.50  .06099 1.0527 129.4 20.0 39.2  68
2026 08 15 01  00 02 33.320   +21 51 39.94  .06094 1.0525 129.3 20.0 43.2  67
2026 08 15 02  00 02 26.434   +22 12 48.65  .06088 1.0523 129.1 20.0 47.3  65
2026 08 15 03  00 02 19.494   +22 33 59.55  .06082 1.0521 128.9 20.0 51.5  63
2026 08 15 04  00 02 12.498   +22 55 12.54  .06077 1.0519 128.7 20.0 55.9  62
2026 08 15 05  00 02 05.447   +23 16 27.53  .06072 1.0518 128.5 20.0 60.4  60
2026 08 15 06  00 01 58.338   +23 37 44.43  .06068 1.0516 128.3 20.0 65.1  58
2026 08 15 07  00 01 51.172   +23 59 03.14  .06063 1.0514 128.1 20.0 70.0  57
2026 08 15 08  00 01 43.949   +24 20 23.56  .06059 1.0512 128.0 20.0 75.0  55
2026 08 15 09  00 01 36.668   +24 41 45.59  .06055 1.0510 127.8 20.0 80.2  54
2026 08 15 10  00 01 29.328   +25 03 09.15  .06051 1.0508 127.6 20.0 85.6  52
2026 08 15 11  00 01 21.928   +25 24 34.12  .06048 1.0506 127.4 20.0 91.2  51
2026 08 15 12  00 01 14.469   +25 46 00.42  .06044 1.0504 127.2 20.0 96.9  50
2026 08 15 13  00 01 06.949   +26 07 27.93  .06041 1.0502 127.0 20.0  103  48
2026 08 15 14  00 00 59.368   +26 28 56.57  .06039 1.0501 126.8 20.0  109  47
2026 08 15 15  00 00 51.726   +26 50 26.23  .06036 1.0499 126.6 20.1  115  46
2026 08 15 16  00 00 44.021   +27 11 56.81  .06034 1.0497 126.4 20.1  122  45
2026 08 15 17  00 00 36.253   +27 33 28.20  .06032 1.0495 126.2 20.1  129  43
2026 08 15 18  00 00 28.422   +27 55 00.31  .06030 1.0493 126.0 20.1  136  42
2026 08 15 19  00 00 20.527   +28 16 33.03  .06028 1.0491 125.8 20.1  143  41
2026 08 15 20  00 00 12.567   +28 38 06.26  .06027 1.0489 125.6 20.1  150  40
2026 08 15 21  00 00 04.542   +28 59 39.89  .06026 1.0487 125.4 20.1  158  39
2026 08 15 22  23 59 56.451   +29 21 13.83  .06025 1.0486 125.1 20.1  166  38
2026 08 15 23  23 59 48.293   +29 42 47.97  .06024 1.0484 124.9 20.1  174  37
2026 08 16 00  23 59 40.068   +30 04 22.21  .06024 1.0482 124.7 20.1  182  36
2026 08 16 01  23 59 31.775   +30 25 56.43  .06023 1.0480 124.5 20.1  191  35
2026 08 16 02  23 59 23.413   +30 47 30.55  .06023 1.0478 124.3 20.1  199  35
2026 08 16 03  23 59 14.981   +31 09 04.45  .06024 1.0476 124.1 20.1  208  34
2026 08 16 04  23 59 06.480   +31 30 38.03  .06024 1.0474 123.9 20.1  217  33
2026 08 16 05  23 58 57.908   +31 52 11.19  .06025 1.0472 123.6 20.1  227  32
2026 08 16 06  23 58 49.264   +32 13 43.82  .06026 1.0471 123.4 20.1  236  32
2026 08 16 07  23 58 40.547   +32 35 15.83  .06027 1.0469 123.2 20.1  246  31
2026 08 16 08  23 58 31.758   +32 56 47.10  .06029 1.0467 123.0 20.1  256  30
2026 08 16 09  23 58 22.895   +33 18 17.54  .06030 1.0465 122.8 20.1  266  29
2026 08 16 10  23 58 13.957   +33 39 47.05  .06032 1.0463 122.5 20.2  276  29
2026 08 16 11  23 58 04.943   +34 01 15.52  .06035 1.0461 122.3 20.2  287  28
2026 08 16 12  23 57 55.854   +34 22 42.85  .06037 1.0459 122.1 20.2  297  28
2026 08 16 13  23 57 46.687   +34 44 08.94  .06040 1.0458 121.9 20.2  308  27
2026 08 16 14  23 57 37.443   +35 05 33.70  .06043 1.0456 121.6 20.2  319  26
2026 08 16 15  23 57 28.120   +35 26 57.01  .06046 1.0454 121.4 20.2  331  26
2026 08 16 16  23 57 18.717   +35 48 18.79  .06049 1.0452 121.2 20.2  342  25
2026 08 16 17  23 57 09.234   +36 09 38.93  .06053 1.0450 121.0 20.2  354  25
2026 08 16 18  23 56 59.670   +36 30 57.35  .06057 1.0448 120.7 20.2  366  24
2026 08 16 19  23 56 50.023   +36 52 13.93  .06061 1.0446 120.5 20.2  378  24
2026 08 16 20  23 56 40.293   +37 13 28.59  .06065 1.0445 120.3 20.2  390  23
2026 08 16 21  23 56 30.480   +37 34 41.23  .06070 1.0443 120.1 20.2  402  23
2026 08 16 22  23 56 20.581   +37 55 51.75  .06074 1.0441 119.8 20.2  415  22